User: anonymous   Login
Location: Wildlife_Club
(35.6000°N, 81.4330°W)
Time: 08:49:44
(UTC-04:00)
Language:

Cosmos 1782 - Orbit

View from above orbital plane
View from above orbital plane
View from above satellite
View from above satellite

Ground track
Ground track

The orbit data is extracted from the following two-line orbital elements,

1 16986U 86074A   17291.31497520 +.00000073 +00000-0 +29180-5 0  9991
2 16986 082.5090 001.4459 0008761 280.5819 079.4421 15.06687220668211
Epoch (UTC): 18 October 2017 07:33:33
Eccentricity: 0.0008761
inclination: 82.5090°
perigee height: 540 km
apogee height: 552 km
right ascension of ascending node: 1.4459°
argument of perigee: 280.5819°
revolutions per day: 15.06687220
mean anomaly at epoch: 79.4421°
orbit number at epoch: 66821

The dashed part of the orbit path shows where the satellite is in the earth's shadow,  

DLR